Wales, AK

4:23 AM AKST on December 10, 2016 (GMT -0900)
Tin City LRRS

Weather History for PATC - July, 2013

Change the Weather History Date:

Sunday, July 28, 2013

  Actual Average Record
Temperature  
Mean Temperature 47 °F -  
Max Temperature 49 °F 49 °F 61 °F (2004)
Min Temperature 45 °F 41 °F 36 °F (2000)
Degree Days  
Heating Degree Days 18    
Moisture  
Dew Point 47 °F    
Average Humidity 100    
Maximum Humidity 100    
Minimum Humidity 100    
Precipitation  
Precipitation 0.02 in - - ()
Sea Level Pressure  
Sea Level Pressure 30.11 in    
Wind  
Wind Speed 21 mph (SSW)    
Max Wind Speed 25 mph    
Max Gust Speed 33 mph    
Averages and records for this station are not official NWS values.
T = Trace of Precipitation, MM = Missing Value Source: NWS Daily Summary

Daily Weather History Graph

Daily Weather History Graph

Search for Another Location

Airport or City:

Trip Planner

Search our weather history database for the weather conditions in past years. The results will help you decide how hot, cold, wet, or windy it might be!

Date:

Astronomy

Jul. 28, 2013 Rise Set
Actual Time 5:49 AM AKDT 12:43 AM AKDT
Civil Twilight 3:50 AM AKDT 2:45 AM AKDT
Nautical Twilight Sun does not rise Sun does not rise
Astronomical Twilight Sun does not rise Sun does not rise
Moon 12:30 AM AKDT (7/28) 4:14 PM AKDT (7/28)
Length of Visible Light 22h 55m
Length of Day
18h 53m
Waning Gibbous, 59% of the Moon is Illuminated
Jul 28
Waning Gibbous
Jul 29
Last Quarter
Aug 6
New
Aug 14
First Quarter
Aug 20
Full

Hourly Weather History & Observations

Time (AKDT) Temp. Windchill Dew Point Humidity Pressure Visibility Wind Dir Wind Speed Gust Speed Precip Events Conditions
12:55 AM 49.1 °F - 49.3 °F 100% 30.13 in 0.2 mi South 20.7 mph - N/A Rain Light Rain
1:55 AM 47.8 °F - 48.0 °F 100% 30.12 in 0.2 mi SSW 20.7 mph - N/A Fog , Rain Light Rain
2:55 AM - - - N/A% 30.12 in 0.2 mi SSW 20.7 mph 26.5 mph N/A Fog , Rain Light Rain
3:55 AM 46.4 °F 38.5 °F 46.8 °F 100% 30.12 in 0.2 mi South 21.9 mph - N/A Fog , Rain Light Rain Showers
4:55 AM 46.6 °F - 46.9 °F 100% 30.10 in 0.2 mi South 19.6 mph 26.5 mph N/A Fog , Rain Light Rain
5:55 AM 46.6 °F - 46.9 °F 100% 30.09 in 0.2 mi South 21.9 mph - N/A Fog , Rain Light Rain
7:55 AM 46.9 °F - 47.1 °F 100% 30.09 in 0.2 mi South 23.0 mph - N/A Fog , Rain Light Rain
8:55 AM - - - N/A% 30.08 in 0.2 mi SSW 25.3 mph 28.8 mph 0.00 in Fog , Rain Light Rain
9:55 AM - - - N/A% 30.08 in 0.2 mi SSW 25.3 mph 33.4 mph 0.00 in Fog , Rain Light Rain
10:55 AM 46.4 °F 37.9 °F 46.8 °F 100% 30.07 in 0.2 mi SSW 25.3 mph 31.1 mph N/A Fog , Rain Light Rain
11:55 AM 46.0 °F 37.8 °F 46.4 °F 100% 30.09 in 0.2 mi SW 23.0 mph 31.1 mph N/A Fog , Rain Light Rain
12:55 PM 45.5 °F 37.8 °F 45.9 °F 100% 30.11 in 0.2 mi SW 19.6 mph - N/A Fog , Rain Light Rain
1:55 PM 45.7 °F 37.1 °F 46.2 °F 100% 30.10 in 0.2 mi SW 24.2 mph - N/A Fog , Rain Light Rain
2:55 PM 46.0 °F 37.6 °F 46.8 °F 100% 30.11 in 0.2 mi SW 24.2 mph - N/A Fog , Rain Light Rain
3:55 PM 45.9 °F 38.0 °F 46.2 °F 100% 30.12 in 0.2 mi SW 20.7 mph - N/A Fog , Rain Light Rain
4:55 PM 45.5 °F 37.3 °F 45.9 °F 100% 30.12 in 0.2 mi SW 21.9 mph - N/A Fog , Rain Light Rain
5:55 PM 45.5 °F 37.3 °F 46.0 °F 100% 30.12 in 0.2 mi SW 21.9 mph - N/A Fog , Rain Light Rain
6:55 PM - - - N/A% 30.12 in 0.2 mi SW 20.7 mph - N/A Fog , Rain Light Rain
7:55 PM - - - N/A% 30.13 in 0.2 mi SSW 21.9 mph - N/A Fog , Rain Light Rain
8:55 PM - - - N/A% 30.13 in 0.2 mi SW 17.3 mph - N/A Fog , Rain Light Rain
9:24 PM 46.4 °F 39.5 °F 46.4 °F 100% 30.13 in 1.2 mi SSW 17.3 mph - N/A   Light Drizzle
9:44 PM 46.4 °F 39.2 °F 46.4 °F 100% 30.14 in 2.0 mi SW 18.4 mph - N/A Rain Light Rain Showers
9:55 PM 45.7 °F 37.6 °F 45.9 °F 100% 30.13 in 0.2 mi SW 21.9 mph - N/A Fog , Rain Light Rain Showers
11:55 PM - - - N/A% 30.14 in 0.2 mi SSW 19.6 mph - N/A Fog , Rain Light Rain